Powrót do katalogu

STARLINK-2221

AktywnyŁącznośćVLEO
NORAD 48571·PAYLOAD·🇺🇸 United States

Wystrzelony May 15, 2021 z Cape Canaveral Space Force Station

Loading…

Następne Przeloty (najbliższe 24 godziny)

TLE

ŚwieżeSource: CelesTrak SupGP

Epoka: Sep 15, 2026, 01:10 UTC

1 48571C 21041U   26258.04909722  .00042758  00000+0  13748-2 0  2587
2 48571  53.1595 338.3200 0001259  85.0223 155.0754 15.31684648    15

Śledź STARLINK-2221 w czasie rzeczywistym z AllMySat

Download on the App Store